Simultaneous Nadir Overpasses (SNOs) Predictions

Prediction of SNOs between NPP and TERRA Satellite Orbit:

Table of predicted SNOs for the next 14.0 days since TLE Epoch: 1/24/2014
Index Date (NPP) Time (NPP) Lat,Lon (NPP) SZA (NPP ) Date (TERRA) Time (TERRA) Lat,Lon (TERRA) SZA (TERRA ) Distance(km) Time Diff (sec)
1 01/26/2014 16:43:53 -68.67, 107.81 92.78 01/26/2014 16:44:48 -68.65, 107.78 92.81 3.34 55
2 01/26/2014 17:34:37 68.53, -84.69 87.07 01/26/2014 17:34:15 68.53, -84.72 87.07 1.47 22
3 01/26/2014 18:25:05 -67.71, 83.68 93.79 01/26/2014 18:23:56 -67.81, 82.06 93.64 68.96 69
4 01/29/2014 08:10:24 69.50, 55.12 87.39 01/29/2014 08:11:32 69.37, 56.96 87.21 73.53 68
5 01/29/2014 09:00:51 -68.62,-136.34 93.53 01/29/2014 09:01:14 -68.60,-136.38 93.55 2.44 23
6 01/29/2014 09:51:35 68.48, 31.15 86.32 01/29/2014 09:50:41 68.48, 31.11 86.32 1.44 54
7 02/01/2014 00:27:08 68.71, 171.99 85.83 02/01/2014 00:28:09 68.69, 171.99 85.81 1.74 61
8 02/01/2014 01:17:49 -68.57, -20.51 94.32 02/01/2014 01:17:39 -68.59, -20.50 94.30 2.49 10
9 02/01/2014 02:08:24 67.95, 147.60 85.04 02/01/2014 02:07:14 68.02, 146.46 85.14 48.04 70
10 02/03/2014 16:44:05 68.67, -72.18 85.02 02/03/2014 16:44:33 68.66, -72.16 85.00 1.48 28
11 02/03/2014 17:34:46 -68.53, 95.32 95.14 02/03/2014 17:34:04 -68.51, 95.29 95.16 2.60 42
12 02/06/2014 08:10:19 -68.75,-123.84 95.69 02/06/2014 08:11:31 -68.73,-123.81 95.73 2.50 72
13 02/06/2014 09:01:02 68.58, 43.71
